DW7346 Weather Reports


Display with metric or nautical units.
time (UTC)temp
F
wind
direction
speed
MPH
gust
MPH
rain 1hr
in
rain 24hr
in
rain mn
in
humidity
%
barometer
mb
20260904040035 82 128 1.0 6.0 0.00 0.00 0.00 74 1010.1
20260904034521 82 121 1.0 9.0 0.00 0.00 0.00 74 1010.2
20260904033017 82 120 0.0 8.0 0.00 0.00 0.00 74 1010.2
20260904031522 83 117 1.0 6.0 0.00 0.00 0.00 73 1010.2
20260904030016 83 346 1.0 8.0 0.00 0.00 0.00 73 1010.2
20260904024516 83 105 2.0 5.0 0.00 0.00 0.00 73 1009.9
20260904023019 84 134 0.0 6.0 0.00 0.00 0.00 73 1009.7
20260904021527 84 101 2.0 7.0 0.00 0.00 0.00 74 1009.6
20260904020015 84 109 1.0 8.0 0.00 0.00 0.00 73 1009.1
20260904014514 85 164 2.0 7.0 0.00 0.00 0.00 72 1008.9
20260904013013 86 74 2.0 6.0 0.00 0.00 0.00 69 1008.7
20260904011514 87 148 2.0 11.0 0.00 0.00 0.00 68 1008.4
20260904010013 87 99 1.0 9.0 0.00 0.00 0.00 67 1008.1
20260904004516 88 135 3.0 8.0 0.00 0.00 0.00 67 1008.2
20260904003021 88 214 2.0 9.0 0.00 0.00 0.00 67 1008.1
20260904001511 89 134 2.0 12.0 0.00 0.00 0.00 66 1008.0
20260904000011 89 89 3.0 10.0 0.00 0.00 0.00 66 1007.9
20260903234510 90 178 3.0 9.0 0.00 0.00 0.00 65 1007.8
20260903233016 91 160 1.0 8.0 0.00 0.00 0.00 64 1007.7
20260903231509 92 131 3.0 11.0 0.00 0.00 0.00 64 1007.5
20260903230008 92 105 2.0 10.0 0.00 0.00 0.00 64 1007.5
20260903224513 93 176 2.0 9.0 0.00 0.00 0.00 63 1007.6
20260903223011 94 95 3.0 8.0 0.00 0.00 0.00 62 1007.6
20260903221507 93 115 4.0 11.0 0.00 0.00 0.00 62 1007.4
20260903220005 94 157 2.0 6.0 0.00 0.00 0.00 62 1007.5
20260903214504 94 169 3.0 0.0 0.00 0.00 0.00 63 1007.7
20260903213111 93 73 4.0 14.0 0.00 0.00 0.00 64 1007.7
20260903211556 92 214 2.0 10.0 0.00 0.00 0.00 65 1007.8
20260903210058 92 244 1.0 8.0 0.00 0.00 0.00 64 1008.0
20260903204550 92 96 2.0 11.0 0.00 0.00 0.00 67 1008.3
20260903203052 91 134 2.0 7.0 0.00 0.00 0.00 69 1008.5
20260903201545 91 252 2.0 7.0 0.00 0.00 0.00 67 1008.7
20260903200040 92 144 2.0 9.0 0.00 0.00 0.00 68 1008.7
20260903194537 91 162 2.0 8.0 0.00 0.00 0.00 68 1008.8
20260903193036 91 257 3.0 9.0 0.00 0.00 0.00 68 1009.0
20260903191539 90 98 2.0 9.0 0.00 0.00 0.00 71 1009.2
20260903190027 90 46 3.0 10.0 0.00 0.00 0.00 72 1009.4
20260903184525 90 233 2.0 9.0 0.00 0.00 0.00 72 1009.8
20260903183028 89 251 2.0 10.0 0.00 0.00 0.00 73 1009.8
20260903181521 89 124 2.0 7.0 0.00 0.00 0.00 72 1009.9
20260903180026 89 84 2.0 12.0 0.00 0.00 0.00 74 1010.0
20260903174516 88 110 2.0 11.0 0.00 0.00 0.00 74 1010.2
20260903173013 87 190 2.0 8.0 0.00 0.00 0.00 76 1010.4
20260903171511 87 198 2.0 6.0 0.00 0.00 0.00 75 1010.5
20260903170013 87 150 3.0 6.0 0.00 0.00 0.00 77 1010.5
20260903164510 86 133 3.0 10.0 0.00 0.00 0.00 77 1010.6
20260903163005 85 246 2.0 7.0 0.00 0.00 0.00 79 1010.7
20260903161502 84 145 1.0 4.0 0.00 0.00 0.00 81 1010.7
20260903160104 84 92 1.0 3.0 0.00 0.00 0.00 81 1010.7
20260903154559 83 98 2.0 5.0 0.00 0.00 0.00 82 1010.6
20260903153057 83 359 1.0 6.0 0.00 0.00 0.00 83 1010.6
20260903151556 82 192 3.0 7.0 0.00 0.00 0.00 83 1010.6
20260903150057 81 91 1.0 4.0 0.00 0.00 0.00 84 1010.7
20260903144554 80 209 0.0 5.0 0.00 0.00 0.00 85 1010.7
20260903143054 80 186 3.0 8.0 0.00 0.00 0.00 85 1010.8
20260903141551 80 147 1.0 5.0 0.00 0.00 0.00 85 1010.9
20260903140049 80 120 0.0 4.0 0.00 0.00 0.00 85 1010.8
20260903134600 79 110 0.0 5.0 0.00 0.00 0.00 85 1010.7
20260903133051 79 110 0.0 4.0 0.00 0.00 0.00 85 1010.6
20260903131545 79 114 1.0 4.0 0.00 0.00 0.00 85 1010.5
20260903130046 78 124 1.0 4.0 0.00 0.00 0.00 85 1010.6
20260903124542 77 110 0.0 3.0 0.00 0.00 0.00 86 1010.5
20260903123043 77 118 0.0 3.0 0.00 0.00 0.00 86 1010.3
20260903121550 77 180 0.0 1.0 0.00 0.00 0.00 85 1010.0
20260903120053 77 179 0.0 1.0 0.00 0.00 0.00 85 1010.0
20260903114557 77 212 0.0 0.0 0.00 0.00 0.00 85 1009.9
20260903113039 77 212 0.0 0.0 0.00 0.00 0.00 85 1010.1
20260903111538 78 212 0.0 1.0 0.00 0.00 0.00 84 1010.1
20260903110036 78 213 0.0 1.0 0.00 0.00 0.00 83 1009.9
20260903104534 79 213 0.0 0.0 0.00 0.00 0.00 83 1009.8
20260903103034 79 213 0.0 0.0 0.00 0.00 0.00 82 1009.7
20260903101533 79 217 0.0 2.0 0.00 0.00 0.00 82 1009.9
20260903100033 79 177 0.0 3.0 0.00 0.00 0.00 83 1009.9
20260903094531 79 207 0.0 3.0 0.00 0.00 0.00 83 1009.9
20260903093032 79 179 0.0 3.0 0.00 0.00 0.00 84 1009.8
20260903091530 79 104 0.0 2.0 0.00 0.00 0.00 83 1009.8
20260903090029 79 104 0.0 2.0 0.00 0.00 0.00 82 1009.7
20260903084527 79 104 0.0 2.0 0.00 0.00 0.00 82 1009.6
20260903083026 80 102 1.0 4.0 0.00 0.00 0.00 82 1009.7
20260903081527 79 100 0.0 4.0 0.00 0.00 0.00 82 1009.8
20260903080025 79 108 0.0 4.0 0.00 0.00 0.00 82 1009.8
20260903074524 79 64 0.0 5.0 0.00 0.00 0.00 82 1009.8
20260903073025 80 74 2.0 5.0 0.00 0.00 0.00 81 1009.8
20260903071526 80 98 0.0 0.0 0.00 0.00 0.00 80 1009.7
20260903070019 80 98 0.0 4.0 0.00 0.00 0.00 79 1009.8
20260903064517 80 108 1.0 5.0 0.00 0.00 0.00 79 1009.9
20260903063019 80 91 0.0 4.0 0.00 0.00 0.00 78 1010.1
20260903061521 81 109 1.0 3.0 0.00 0.00 0.00 77 1010.1
20260903060012 81 134 2.0 7.0 0.00 0.00 0.00 77 1010.3
20260903054513 82 85 3.0 9.0 0.00 0.00 0.00 76 1010.5
20260903053006 83 128 3.0 9.0 0.00 0.00 0.00 73 1010.4
20260903051504 83 74 2.0 6.0 0.00 0.00 0.00 72 1010.3
20260903050001 84 103 2.0 6.0 0.00 0.00 0.00 71 1010.3
20260903044602 84 91 2.0 8.0 0.00 0.00 0.00 70 1010.1
20260903043100 84 105 2.0 7.0 0.00 0.00 0.00 69 1010.1
20260903041612 85 101 2.0 6.0 0.00 0.00 0.00 68 1010.1